Rome, NY

9:46 PM EDT on October 19, 2017 (GMT -0400)
Griffiss

Weather History for KRME - May, 2014

Change the Weather History Date:

Wednesday, May 21, 2014

  Actual Average Record
Temperature  
Mean Temperature 60 °F -  
Max Temperature 75 °F 69 °F 87 °F (2013)
Min Temperature 46 °F 47 °F 34 °F (2008)
Degree Days  
Heating Degree Days 6    
Growing Degree Days 10 (Base 50)    
Moisture  
Dew Point 49 °F    
Average Humidity 69    
Maximum Humidity 90    
Minimum Humidity 38    
Precipitation  
Precipitation 0.00 in - - ()
Sea Level Pressure  
Sea Level Pressure 29.92 in    
Wind  
Wind Speed 4 mph (SE)    
Max Wind Speed 10 mph    
Max Gust Speed 16 mph    
Visibility 10 miles    
Events      
Averages and records for this station are not official NWS values.
T = Trace of Precipitation, MM = Missing Value Source: NWS Daily Summary

Daily Weather History Graph

Daily Weather History Graph

Search for Another Location

Airport or City:

Trip Planner

Search our weather history database for the weather conditions in past years. The results will help you decide how hot, cold, wet, or windy it might be!

Date:

Astronomy

May. 21, 2014 Rise Set
Actual Time 5:32 AM EDT 8:25 PM EDT
Civil Twilight 4:58 AM EDT 8:58 PM EDT
Nautical Twilight 4:16 AM EDT 9:41 PM EDT
Astronomical Twilight 3:26 AM EDT 10:31 PM EDT
Moon 1:25 AM EDT (5/21) 12:51 PM EDT (5/21)
Length of Visible Light 16h 00m
Length of Day
14h 52m
Waning Gibbous, 49% of the Moon is Illuminated
May 21
Waning Gibbous
May 28
New
Jun 5
First Quarter
Jun 13
Full
Jun 19
Last Quarter

Hourly Weather History & Observations

Time (EDT) Temp. Dew Point Humidity Pressure Visibility Wind Dir Wind Speed Gust Speed Precip Events Conditions
12:53 AM 52.0 °F 44.1 °F 74% 30.01 in 10.0 mi Calm Calm - N/A   Overcast
1:53 AM 50.0 °F 43.0 °F 77% 30.01 in 10.0 mi Calm Calm - N/A   Partly Cloudy
2:53 AM 48.0 °F 42.1 °F 80% 30.00 in 10.0 mi Calm Calm - N/A   Mostly Cloudy
3:53 AM 46.9 °F 42.1 °F 83% 30.00 in 10.0 mi East 4.6 mph - N/A   Mostly Cloudy
4:53 AM 48.0 °F 42.1 °F 80% 29.99 in 10.0 mi SE 3.5 mph - N/A   Overcast
5:53 AM 48.0 °F 43.0 °F 83% 29.98 in 10.0 mi SE 3.5 mph - N/A   Overcast
6:53 AM 50.0 °F 44.1 °F 80% 29.99 in 10.0 mi SE 3.5 mph - N/A   Overcast
7:53 AM 53.1 °F 45.0 °F 74% 29.98 in 10.0 mi ESE 4.6 mph - N/A   Overcast
8:53 AM 60.1 °F 46.9 °F 62% 29.96 in 10.0 mi ESE 5.8 mph - N/A   Overcast
9:53 AM 62.1 °F 48.9 °F 62% 29.95 in 10.0 mi SSE 6.9 mph - N/A   Overcast
11:53 AM 71.1 °F 45.0 °F 39% 29.92 in 10.0 mi East 8.1 mph 16.1 mph N/A   Mostly Cloudy
12:53 PM 73.0 °F 46.0 °F 38% 29.90 in 10.0 mi North - - N/A   Mostly Cloudy
2:53 PM 72.0 °F 50.0 °F 46% 29.88 in 10.0 mi South 8.1 mph - N/A   Overcast
3:53 PM 72.0 °F 51.1 °F 48% 29.87 in 10.0 mi SSE 8.1 mph - N/A   Mostly Cloudy
4:53 PM 72.0 °F 52.0 °F 49% 29.87 in 10.0 mi SSW 9.2 mph - N/A   Overcast
5:53 PM 72.0 °F 53.1 °F 51% 29.87 in 10.0 mi WSW 10.4 mph - N/A   Mostly Cloudy
6:53 PM 69.1 °F 54.0 °F 58% 29.86 in 10.0 mi South 10.4 mph - N/A   Clear
7:53 PM 66.9 °F 55.0 °F 66% 29.87 in 10.0 mi South 5.8 mph - N/A   Clear
8:53 PM 62.1 °F 55.0 °F 78% 29.86 in 10.0 mi ENE 3.5 mph - N/A   Clear
9:53 PM 59.0 °F 55.0 °F 87% 29.87 in 10.0 mi ENE 3.5 mph - N/A   Clear
10:25 PM 57.9 °F 55.0 °F 90% 29.87 in 10.0 mi Calm Calm - N/A   Mostly Cloudy
10:39 PM 60.1 °F 55.0 °F 83% 29.87 in 10.0 mi Calm Calm - N/A   Overcast
10:49 PM 60.8 °F 55.4 °F 82% 29.87 in 10.0 mi ENE 5.8 mph - N/A   Overcast
10:53 PM 61.0 °F 55.9 °F 83% 29.86 in 10.0 mi ENE 5.8 mph - N/A   Overcast
11:53 PM 62.1 °F 55.9 °F 80% 29.84 in 10.0 mi East 4.6 mph - N/A   Overcast